Regional Weather Roundup
Issued by NWS

Home | Current Version | Previous Version | Graphics & Text | Print | Product List | Glossary On
Versions: 1 2 3 4 5 6 7 8 9 10 11 12 13 14 15 16 17 18 19 20 21 22 23 24 25 26 27 28 29 30 31 32 33 34 35 36 37 38 39 40 41 42 43 44 45 46 47 48 49 50
000
ASUS43 KOAX 010702
RWRNE

WEATHER ROUNDUP FOR NEBRASKA
NATIONAL WEATHER SERVICE OMAHA NE
200 AM CDT SAT OCT 01 2016

NOTES: SATELLITE DATA IS BEING USED TO AUGMENT CLOUD COVER ABOVE
       12000 FEET.
       "FAIR" INDICATES FEW OR NO CLOUDS BELOW 12,000 FEET WITH NO
       SIGNIFICANT WEATHER AND/OR OBSTRUCTIONS TO VISIBILITY.

  * THESE STATIONS DO NOT REPORT WEATHER SUCH AS RAIN...SNOW OR FOG.

NEZ001>004-019>022-054>056-010800-
NEBRASKA PANHANDLE

CITY           SKY/WX    TMP DP  RH WIND       PRES   REMARKS
SCOTTSBLUFF    CLEAR     52  46  80 E9        30.11S
ALLIANCE       CLEAR     49  45  86 SE8       30.11S
CHADRON        CLEAR     61  47  59 S9        30.05F
KIMBALL        CLEAR     50  46  88 S7        30.16S
SIDNEY         CLEAR     52  45  77 S8        30.15S
$$

NEZ057>060-069>072-079>082-010800-
SOUTHWEST NEBRASKA

CITY           SKY/WX    TMP DP  RH WIND       PRES   REMARKS
NORTH PLATTE   CLOUDY    51  45  79 E5        30.14S
IMPERIAL       CLOUDY    56  45  66 S8        30.15R
LEXINGTON      PTCLDY    50  45  81 SE5       30.15S
MCCOOK         CLOUDY    53  46  77 CALM      30.14F
OGALLALA       PTCLDY    58  47  67 SE3       30.14S
$$

NEZ005>010-023>029-035>040-094-010800-
NORTH CENTRAL NEBRASKA

CITY           SKY/WX    TMP DP  RH WIND       PRES   REMARKS
VALENTINE      CLOUDY    57  44  62 S10       30.11R
AINSWORTH      PTCLDY    56  46  68 S9        30.13S
BROKEN BOW     CLOUDY    46  42  86 CALM      30.14S
O`NEILL        PTCLDY    52  45  75 CALM      30.16S
ORD            PTCLDY    48  43  82 E3        30.14F
THEDFORD       CLOUDY    55  47  74 S6        30.14S
$$

NEZ041-046>049-061>064-073>077-083>087-010800-
SOUTH CENTRAL NEBRASKA

CITY           SKY/WX    TMP DP  RH WIND       PRES   REMARKS
GRAND ISLAND   MOCLDY    54  45  71 SE5       30.16S
AURORA         MOCLDY    51  47  86 E6        30.16S
HASTINGS       PTCLDY    51  45  79 CALM      30.17S
HEBRON         MOCLDY    47  46  95 CALM      30.16S
HOLDREGE       MOCLDY    53  44  73 CALM      30.15S
KEARNEY *      PTCLDY    52  43  71 E3        30.15S
YORK           PTCLDY    50  46  87 CALM      30.17S
$$

NEZ011>018-030>034-042>045-010800-
NORTHEAST NEBRASKA

CITY           SKY/WX    TMP DP  RH WIND       PRES   REMARKS
NORFOLK        PTCLDY    48  43  82 CALM      30.16S
ALBION         CLOUDY    47  44  90 CALM      30.17S
BLAIR          CLOUDY    56  53  89 CALM      30.16S
FREMONT        CLOUDY    51  49  93 CALM      30.17S
TEKAMAH        CLOUDY    53  50  89 N3        30.16S
WAYNE          PTCLDY    44  43  97 CALM      30.18S
$$

NEZ050>053-065>068-078-088>093-010800-
SOUTHEAST NEBRASKA

CITY           SKY/WX    TMP DP  RH WIND       PRES   REMARKS
LINCOLN        PTCLDY    49  47  93 N6        30.17F
OMAHA EPPLEY   CLOUDY    56  52  86 NW5       30.15F
BEATRICE       PTCLDY    51  50  96 CALM      30.15F
FALLS CITY     CLEAR     52  51  97 CALM      30.13F
NEBRASKA CITY  CLEAR     53  51  93 CALM      30.15S
PLATTSMOUTH    CLOUDY    53  49  89 CALM      30.16S
$$

NEZ044-045-051>053-067-010800-
OMAHA AREA

CITY           SKY/WX    TMP DP  RH WIND       PRES   REMARKS
OMAHA EPPLEY   CLOUDY    56  52  86 NW5       30.15F
BLAIR          CLOUDY    56  53  89 CALM      30.16S
FREMONT        CLOUDY    51  49  93 CALM      30.17S
MILLARD        CLOUDY    55  53  94 CALM      30.16S
OFFUTT AFB     PTCLDY    53  53  99 NW2       30.14F
PLATTSMOUTH    CLOUDY    53  49  89 CALM      30.16S
WAHOO          FAIR      49  47  94 CALM      30.17R
$$




USA.gov is the U.S. government's official web portal to all federal, state and local government web resources and services.